Tanger, Morocco

2:23 AM WEST on September 23, 2017 (GMT +0100)
Tanger

Weather History for GMTT - March, 2013

Change the Weather History Date:

Sunday, March 31, 2013

  Actual Average Record
Temperature  
Mean Temperature 61 °F -  
Max Temperature 63 °F 67 °F 78 °F (2005)
Min Temperature 59 °F 51 °F 44 °F (2009)
Degree Days  
Heating Degree Days 4    
Growing Degree Days 11 (Base 50)    
Moisture  
Dew Point 60 °F    
Average Humidity 92    
Maximum Humidity 94    
Minimum Humidity 84    
Precipitation  
Precipitation 0.08 in 0.08 in - ()
Sea Level Pressure  
Sea Level Pressure 29.92 in    
Wind  
Wind Speed 15 mph ()    
Max Wind Speed 21 mph    
Max Gust Speed 32 mph    
Visibility 3.6 miles    
Events Rain    
Averages and records for this station are not official NWS values.
T = Trace of Precipitation, MM = Missing Value Source: Averaged Metar Reports

Daily Weather History Graph

Daily Weather History Graph

Search for Another Location

Airport or City:

Trip Planner

Search our weather history database for the weather conditions in past years. The results will help you decide how hot, cold, wet, or windy it might be!

Date:

Astronomy

Mar. 31, 2013 Rise Set
Actual Time 6:11 AM WET 6:44 PM WET
Civil Twilight 5:45 AM WET 7:10 PM WET
Nautical Twilight 5:15 AM WET 7:40 PM WET
Astronomical Twilight 4:44 AM WET 8:11 PM WET
Moon 11:30 PM WET (3/31) 8:54 AM WET (3/31)
Length of Visible Light 13h 24m
Length of Day
12h 33m
Waning Gibbous, 79% of the Moon is Illuminated
Mar 31
Waning Gibbous
Apr 3
Last Quarter
Apr 10
New
Apr 18
First Quarter
Apr 25
Full

Hourly Weather History & Observations

Time (WET) Temp. Dew Point Humidity Pressure Visibility Wind Dir Wind Speed Gust Speed Precip Events Conditions
12:00 AM 63 °F 61 °F 89% 30.05 in 2 mi WSW 16.1 mph - - Rain Light Rain
12:00 AM 62.6 °F 60.8 °F 94% 30.04 in 1.9 mi WSW 16.1 mph - N/A Rain Rain
12:30 AM 62.6 °F 60.8 °F 94% 30.04 in 1.9 mi SW 15.0 mph - N/A Rain Rain
1:00 AM 62.6 °F 60.8 °F 94% 30.01 in 1.9 mi WSW 12.7 mph - N/A Rain Rain
1:30 AM 62.6 °F 60.8 °F 94% 30.01 in - WSW 16.1 mph - N/A Rain Rain
2:00 AM 62.6 °F 60.8 °F 94% 29.98 in - WSW 15.0 mph - N/A Rain Rain
2:30 AM 62.6 °F 60.8 °F 94% 29.98 in 3.1 mi WSW 15.0 mph - N/A   Unknown
3:00 AM 62 °F 61 °F 94% 29.99 in 3 mi West 13.8 mph - -  
3:00 AM 62.6 °F 60.8 °F 94% 29.98 in - West 13.8 mph - N/A   Unknown
3:30 AM 62.6 °F 60.8 °F 94% 29.95 in - WSW 15.0 mph - N/A   Unknown
4:00 AM 62.6 °F 60.8 °F 94% 29.95 in 6.2 mi WSW 13.8 mph - N/A   Unknown
4:30 AM 62.6 °F 60.8 °F 94% 29.95 in 6.2 mi WSW 15.0 mph - N/A   Unknown
5:00 AM 62.6 °F 60.8 °F 94% 29.95 in 6.2 mi WSW 13.8 mph - N/A   Unknown
5:30 AM 62.6 °F 60.8 °F 94% 29.95 in 6.2 mi WSW 15.0 mph - N/A   Mostly Cloudy
6:00 AM 62 °F 60 °F 93% 29.96 in 6 mi WSW 13.8 mph - -   Mostly Cloudy
6:00 AM 62.6 °F 60.8 °F 94% 29.95 in 6.2 mi WSW 13.8 mph - N/A   Mostly Cloudy
6:30 AM 62.6 °F 60.8 °F 94% 29.95 in 2.8 mi WSW 13.8 mph - N/A   Mostly Cloudy
7:00 AM 62.6 °F 60.8 °F 94% 29.95 in 6.2 mi WSW 15.0 mph - N/A   Mostly Cloudy
7:30 AM 62.6 °F 60.8 °F 94% 29.95 in 1.9 mi WSW 16.1 mph - N/A Rain Rain
8:00 AM 62.6 °F 60.8 °F 94% 29.95 in 3.1 mi WSW 13.8 mph - N/A   Mostly Cloudy
8:30 AM 62.6 °F 60.8 °F 94% 29.95 in 3.1 mi WSW 15.0 mph - N/A   Mostly Cloudy
9:00 AM 63 °F 61 °F 92% 29.96 in 3 mi WSW 16.1 mph - -   Partly Cloudy
9:00 AM 62.6 °F 60.8 °F 94% 29.95 in 3.1 mi WSW 15.0 mph - N/A   Mostly Cloudy
9:30 AM 62.6 °F 60.8 °F 94% 29.95 in 3.1 mi WSW 15.0 mph - N/A   Mostly Cloudy
10:00 AM 62.6 °F 60.8 °F 94% 29.95 in 3.1 mi WSW 16.1 mph - N/A   Mostly Cloudy
10:30 AM 64.4 °F 62.6 °F 94% 29.95 in 3.1 mi WSW 16.1 mph - N/A Rain Light Rain
10:36 AM 62.6 °F 60.8 °F 94% 29.95 in 1.9 mi WSW 17.3 mph - N/A   Light Drizzle
11:00 AM 62.6 °F 60.8 °F 94% 29.92 in 1.9 mi WSW 16.1 mph - N/A   Light Drizzle
11:30 AM 62.6 °F 60.8 °F 94% 29.92 in 2.5 mi WSW 16.1 mph - N/A   Light Drizzle
12:00 PM 63 °F 62 °F 93% 29.93 in 2 mi WSW 17.3 mph - - Rain Light Rain
12:00 PM 62.6 °F 60.8 °F 94% 29.92 in 1.9 mi WSW 17.3 mph - N/A Rain Light Rain
12:30 PM 64.4 °F 62.6 °F 94% 29.92 in 1.9 mi West 17.3 mph - N/A Rain Light Rain
1:00 PM 62.6 °F 60.8 °F 94% 29.89 in 1.9 mi West 15.0 mph - N/A Rain Light Rain
1:20 PM 62.6 °F 60.8 °F 94% 29.89 in 3.1 mi WSW 17.3 mph - N/A   Mostly Cloudy
1:30 PM 62.6 °F 60.8 °F 94% 29.89 in 3.1 mi WSW 17.3 mph - N/A   Mostly Cloudy
2:00 PM 62.6 °F 60.8 °F 94% 29.89 in 3.1 mi WSW 17.3 mph - N/A   Mostly Cloudy
2:30 PM 62.6 °F 60.8 °F 94% 29.89 in 3.1 mi WSW 17.3 mph - N/A Rain Light Rain
3:00 PM 63 °F 61 °F 90% 29.89 in 3 mi WSW 16.1 mph - - Rain Light Rain
3:00 PM 62.6 °F 60.8 °F 94% 29.89 in 3.1 mi WSW 16.1 mph - N/A Rain Light Rain
3:30 PM 62.6 °F 60.8 °F 94% 29.86 in 3.1 mi WSW 16.1 mph - N/A   Mostly Cloudy
4:00 PM 62.6 °F 60.8 °F 94% 29.86 in 3.1 mi WSW 15.0 mph - N/A   Mostly Cloudy
4:30 PM 62.6 °F 60.8 °F 94% 29.86 in 3.1 mi SW 17.3 mph - N/A   Mostly Cloudy
5:00 PM 62.6 °F 60.8 °F 94% 29.86 in 5.0 mi WSW 18.4 mph - N/A   Mostly Cloudy
5:30 PM 62.6 °F 59.0 °F 88% 29.86 in 5.0 mi WSW 17.3 mph - N/A   Mostly Cloudy
6:00 PM 62 °F 59 °F 88% 29.86 in 5 mi SW 16.1 mph - -   Partly Cloudy
6:00 PM 62.6 °F 59.0 °F 88% 29.86 in 5.0 mi SW 16.1 mph - N/A   Mostly Cloudy
6:30 PM 62.6 °F 59.0 °F 88% 29.86 in 5.0 mi SW 16.1 mph - N/A   Mostly Cloudy
7:00 PM 62.6 °F 59.0 °F 88% 29.86 in 5.0 mi SW 17.3 mph - N/A   Mostly Cloudy
7:30 PM 62.6 °F 59.0 °F 88% 29.86 in 5.0 mi SW 18.4 mph - N/A   Mostly Cloudy
8:00 PM 62.6 °F 59.0 °F 88% 29.86 in 5.0 mi WSW 16.1 mph - N/A   Mostly Cloudy
8:30 PM 62.6 °F 59.0 °F 88% 29.86 in 5.0 mi SW 17.3 mph - N/A   Mostly Cloudy
9:00 PM 62 °F 58 °F 84% 29.88 in 5 mi SW 17.3 mph - -   Mostly Cloudy
9:00 PM 62.6 °F 59.0 °F 88% 29.86 in 5.0 mi SW 17.3 mph - N/A   Mostly Cloudy
9:30 PM 62.6 °F 59.0 °F 88% 29.86 in 3.7 mi SW 16.1 mph - N/A   Mostly Cloudy
10:00 PM 62.6 °F 59.0 °F 88% 29.86 in 3.7 mi SW 20.7 mph - N/A   Mostly Cloudy
10:20 PM 60.8 °F 59.0 °F 94% 29.86 in 3.1 mi SW 19.6 mph 32.2 mph N/A Rain Light Rain Showers
10:30 PM 60.8 °F 59.0 °F 94% 29.86 in 3.1 mi SW 19.6 mph 32.2 mph N/A Rain Light Rain Showers
11:00 PM 60.8 °F 59.0 °F 94% 29.83 in 3.1 mi SW 18.4 mph - N/A   Mostly Cloudy
11:30 PM 60.8 °F 59.0 °F 94% 29.83 in 3.1 mi SW 17.3 mph 28.8 mph N/A Rain Light Rain Showers